Stations météo

réclame
Mon MeteoGroup
Barth, Allemagne (10180): Température de l'air & dewpoint: 15.10.2018 16:00:00 - 21.10.2018 16:00:00 (CEST)Barth, Allemagne (10180): Température de l'air 5cm & Température de l'air -5cm: 15.10.2018 16:00:00 - 21.10.2018 16:00:00 (CEST)Barth, Allemagne (10180): Température de l'air -20cm & Température de l'air -100cm: 15.10.2018 16:00:00 - 21.10.2018 16:00:00 (CEST)Barth, Allemagne (10180): Vitesse du vent & gusts: 15.10.2018 16:00:00 - 21.10.2018 16:00:00 (CEST)Barth, Allemagne (10180): Direction du vent: 15.10.2018 16:00:00 - 21.10.2018 16:00:00 (CEST)Barth, Allemagne (10180): reduced air pressure: 15.10.2018 16:00:00 - 21.10.2018 16:00:00 (CEST)Barth, Allemagne (10180): visibility: 15.10.2018 16:00:00 - 21.10.2018 16:00:00 (CEST)Barth, Allemagne (10180): Ensoleillement: 15.10.2018 16:00:00 - 21.10.2018 16:00:00 (CEST)Barth, Allemagne (10180): Quantités de précipitations: 15.10.2018 16:00:00 - 21.10.2018 16:00:00 (CEST)
Date & Time tt [°C] td [°C] tt 5cm [°C] tt -5cm [°C] tt -20cm [°C] tt -100cm [°C] ff [km/h] ff [knt] fx [km/h] fx [knt] dd ppp [hPa] vv [km] sd [min] rr [mm]
21.10.2018 16:00:00 14,2 8,9 14,7 13,9 10,9 12,8 16 9 29 16 WSW 1026,4 45 3 0,0
21.10.2018 15:00:00 14,6 8,6 16,1 14,1 10,4 12,9 17 9 27 14 SW 1026,7 45 14 0,0
21.10.2018 14:00:00 14,2 8,1 16,4 13,9 9,8 12,9 16 9 27 14 SSW 1027,2 50 54 0,0
21.10.2018 13:00:00 13,7 7,3 17,4 12,3 9,2 12,9 15 8 24 13 SW 1027,9 26 59 0,0
21.10.2018 12:00:00 12,2 8,3 14,7 11,1 8,7 12,9 15 8 23 12 SW 1028,4 30 37 0,0
21.10.2018 11:00:00 11,0 9,0 14,2 9,3 8,3 12,9 9 5 18 10 SW 1028,3 22 57 0,0
21.10.2018 10:00:00 8,1 7,2 9,6 6,6 8,3 12,9 4 2 10 5 SSW 1028,5 13 45 0,0
21.10.2018 09:00:00 3,2 2,4 2,7 5,4 8,5 12,9 4 2 5 3 SSE 1028,1 0,2 19 0,0
21.10.2018 08:00:00 3,1 2,4 -0,4 5,4 8,6 12,9 2 1 5 3 S 1028,0 0,2 0 0,0
21.10.2018 07:00:00 3,9 3,4 1,1 5,9 8,7 12,9 2 1 4 2 S 1027,9 0,2 0 0,0
21.10.2018 06:00:00 3,5 3,1 3,0 5,9 8,9 12,9 1 1 6 3 S 1028,2 0,6 0 0,0
21.10.2018 05:00:00 2,4 2,1 0,4 5,7 9,1 12,9 3 2 4 2 S 1027,9 0,2 0 0,0
21.10.2018 04:00:00 1,3 0,9 0,2 6,0 9,4 12,9 3 1 5 3 S 1028,0 0,2 0 0,0
21.10.2018 03:00:00 2,9 2,4 -1,0 6,3 9,7 12,9 3 1 4 2 S 1027,8 0,1 0 0,0
21.10.2018 02:00:00 3,2 2,7 -0,2 6,8 9,9 13,0 3 2 7 4 S 1027,9 0,4 0 0,0
21.10.2018 01:00:00 6,2 5,6 1,7 7,6 10,1 13,0 3 2 5 3 SSW 1028,0 0,6 0 0,0
21.10.2018 00:00:00 5,5 5,0 2,9 7,6 10,4 13,0 4 2 6 3 SSW 1027,9 7 0 0,0
20.10.2018 23:00:00 6,3 5,6 1,6 8,2 10,6 13,0 5 3 9 5 W 1027,7 0,6 0 0,0
20.10.2018 22:00:00 8,4 6,7 3,5 9,2 10,8 13,0 5 3 14 8 WNW 1027,7 29 0 0,0
20.10.2018 21:00:00 9,9 7,2 7,7 9,9 10,9 13,0 8 5 12 7 WNW 1027,5 34 0 0,0
20.10.2018 20:00:00 10,3 8,3 9,1 10,2 11,0 13,0 10 5 13 7 W 1027,3 30 0 0,0
20.10.2018 19:00:00 10,8 9,2 7,9 10,7 11,0 13,0 4 2 16 9 WNW 1027,1 21 0 0,0
20.10.2018 18:00:00 11,4 9,2 10,4 11,1 11,0 13,0 9 5 21 11 W 1027,0 24 0 0,0
20.10.2018 17:00:00 12,1 9,1 11,4 11,8 10,8 13,0 17 9 29 15 W 1026,8 28 16 0,0
20.10.2018 16:00:00 12,9 9,5 14,0 11,9 10,6 13,0 18 10 31 17 W 1026,8 26 3 0,0
20.10.2018 15:00:00 12,3 8,7 13,4 11,6 10,3 13,0 22 12 37 20 W 1026,9 16 0 0,0
20.10.2018 14:00:00 12,0 8,0 13,1 11,0 10,1 13,0 22 12 36 19 W 1026,9 24 0 0,0
20.10.2018 13:00:00 11,3 8,0 11,3 10,2 10,0 13,1 19 11 32 18 W 1027,0 22 0 0,0
20.10.2018 12:00:00 9,9 7,9 9,5 9,9 9,8 13,1 15 8 26 14 WSW 1027,0 20 0 0,1
20.10.2018 11:00:00 11,1 6,7 11,6 9,7 9,6 13,1 19 10 30 16 WSW 1026,9 32 19 0,0
20.10.2018 10:00:00 9,9 6,0 9,8 8,4 9,6 13,1 14 8 21 11 WSW 1026,7 34 0 0,0
20.10.2018 09:00:00 8,3 4,4 7,9 7,6 9,7 13,1 11 6 17 9 SW 1026,6 41 9 0,0
20.10.2018 08:00:00 4,1 3,1 0,7 6,9 10,0 13,1 8 4 12 6 WSW 1026,3 26 0 0,0
20.10.2018 07:00:00 5,4 3,7 0,2 7,8 10,1 13,1 5 3 11 6 SSW 1025,8 31 0 0,0
20.10.2018 06:00:00 8,5 5,2 7,3 8,8 10,2 13,1 6 3 9 5 W 1025,9 35 0 0,0
20.10.2018 05:00:00 8,4 5,2 7,8 8,9 10,2 13,1 5 3 10 5 SW 1025,6 35 0 0,0
20.10.2018 04:00:00 8,2 4,9 7,4 8,9 10,3 13,1 5 3 11 6 SSW 1025,8 36 0 0,0
20.10.2018 03:00:00 9,3 3,5 8,1 8,9 10,3 13,1 9 5 14 8 WNW 1026,0 47 0 0,0
20.10.2018 02:00:00 7,5 5,7 6,9 8,9 10,4 13,1 4 2 7 4 W 1025,9 27 0 0,0
20.10.2018 01:00:00 7,2 5,7 6,8 8,9 10,5 13,1 3 2 4 2 S 1026,0 24 0 0,0
20.10.2018 00:00:00 6,7 5,4 6,4 8,9 10,6 13,2 2 1 5 3 SSE 1025,8 18 0 0,0
19.10.2018 23:00:00 7,3 5,6 4,6 8,9 10,7 13,2 2 1 6 3 ESE 1025,7 23 0 0,0
19.10.2018 22:00:00 7,3 5,6 5,5 9,3 10,9 13,2 0 0 5 3 N 1026,1 23 0 0,0
19.10.2018 21:00:00 7,3 5,6 6,8 9,4 11,1 13,2 3 1 6 4 S 1025,9 27 0 0,0
19.10.2018 20:00:00 5,4 4,0 4,1 9,2 11,3 13,2 3 2 6 3 S 1025,7 21 0 0,0
19.10.2018 19:00:00 5,8 4,2 2,5 10,1 11,5 13,2 3 2 9 5 SW 1025,4 25 0 0,0
19.10.2018 18:00:00 8,4 5,3 4,6 11,3 11,5 13,2 8 4 13 7 WSW 1025,1 41 16 0,0
19.10.2018 17:00:00 11,3 5,3 11,7 12,4 11,4 13,2 8 4 13 7 WNW 1025,0 57 26 0,0
19.10.2018 16:00:00 12,1 5,0 14,2 12,9 11,0 13,2 6 3 18 10 W 1025,3 58 32 0,0
19.10.2018 15:00:00 12,1 5,6 16,5 13,0 10,6 13,2 10 5 17 9 NNW 1025,8 37 30 0,0
19.10.2018 14:00:00 11,4 5,5 15,0 12,4 10,1 13,2 9 5 17 9 N 1026,0 50 28 0,0
19.10.2018 13:00:00 12,1 5,5 16,8 11,8 9,6 13,2 6 4 17 9 NNW 1026,1 49 48 0,0
19.10.2018 12:00:00 10,9 5,9 13,0 10,2 9,2 13,2 11 6 20 11 NW 1026,2 53 34 0,0
19.10.2018 11:00:00 11,2 6,2 13,3 9,0 9,0 13,2 11 6 19 10 NW 1026,1 40 60 0,0
19.10.2018 10:00:00 7,8 6,1 10,4 6,8 8,9 13,2 5 3 7 4 WNW 1026,0 41 60 0,0
19.10.2018 09:00:00 2,7 1,8 4,4 5,6 9,1 13,2 2 1 4 2 SSW 1025,8 30 44 0,0
19.10.2018 08:00:00 0,6 0,0 -0,8 5,4 9,3 13,2 4 2 8 4 W 1025,3 13 0 0,0
19.10.2018 07:00:00 1,3 0,5 -1,0 5,8 9,5 13,2 2 1 4 2 WSW 1025,1 0,3 0 0,0
19.10.2018 06:00:00 2,9 2,1 0,7 6,4 9,7 13,2 2 1 7 4 S 1025,0 34 0 0,0
19.10.2018 05:00:00 2,4 1,7 1,9 6,3 9,9 13,2 3 2 4 2 S 1025,0 38 0 0,0
19.10.2018 04:00:00 1,4 0,9 -1,5 6,0 10,3 13,2 3 2 4 2 SSE 1024,9 0,5 0 0,0
19.10.2018 03:00:00 1,5 0,8 -1,7 6,5 10,6 13,2 2 1 6 3 S 1025,0 0,4 0 0,0
19.10.2018 02:00:00 2,6 1,5 -0,8 7,2 10,9 13,2 4 2 11 6 W 1025,2 28 0 0,0
19.10.2018 01:00:00 7,0 4,5 2,5 7,9 11,2 13,3 7 4 11 6 NNW 1025,3 43 0 0,0
19.10.2018 00:00:00 8,9 5,6 5,2 8,5 11,5 13,3 7 4 15 8 NNW 1025,2 51 0 0,0
18.10.2018 23:00:00 9,2 5,5 5,7 8,9 11,7 13,3 8 4 16 9 NNW 1025,1 52 0 0,0
18.10.2018 22:00:00 9,9 6,1 7,2 9,5 12,0 13,3 9 5 19 10 NNW 1024,8 48 0 0,0
18.10.2018 21:00:00 10,0 5,7 7,1 10,1 12,3 13,3 10 5 25 14 N 1024,5 50 0 0,0
18.10.2018 20:00:00 10,8 6,2 8,4 10,6 12,5 13,3 11 6 21 11 N 1023,9 47 0 0,0
18.10.2018 19:00:00 10,6 6,4 7,1 11,5 12,7 13,3 8 4 14 8 NNW 1023,5 45 0 0,0
18.10.2018 18:00:00 12,3 6,9 10,3 12,7 12,7 13,3 10 5 29 15 N 1022,8 55 54 0,0
18.10.2018 17:00:00 13,6 8,4 14,3 13,6 12,6 13,3 14 8 27 15 N 1022,4 47 43 0,0
18.10.2018 16:00:00 13,9 9,3 15,1 13,7 12,3 13,3 15 8 30 16 NNW 1022,2 44 16 0,0
18.10.2018 15:00:00 13,9 10,1 14,9 13,6 12,1 13,3 18 10 31 17 NNW 1022,1 29 27 0,0
18.10.2018 14:00:00 13,8 10,7 14,8 13,0 11,9 13,3 16 9 29 15 N 1022,0 21 0 0,0
18.10.2018 13:00:00 13,3 11,7 13,4 12,4 11,8 13,3 16 8 27 15 NNW 1021,7 7 0 0,0
18.10.2018 12:00:00 13,1 11,6 12,9 12,2 11,6 13,3 14 7 23 12 NNW 1021,4 5 0 0,0
18.10.2018 11:00:00 13,0 12,3 13,4 11,9 11,5 13,3 10 5 16 9 NNW 1021,1 2,6 0 0,0
18.10.2018 10:00:00 12,4 12,0 12,6 11,3 11,3 13,3 9 5 23 12 NNW 1020,8 1,0 0 0,1
18.10.2018 09:00:00 12,2 11,7 12,3 10,8 11,2 13,3 10 6 15 8 NW 1020,3 0,2 0 0,0
18.10.2018 08:00:00 11,6 11,2 11,5 10,4 11,2 13,3 7 4 12 7 WNW 1019,7 0,1 0 0,1
18.10.2018 07:00:00 11,4 10,9 11,2 9,8 11,2 13,3 8 5 12 6 WNW 1019,4 0,2 0 0,0
18.10.2018 06:00:00 9,6 9,1 9,2 9,1 11,3 13,3 6 3 8 5 WSW 1019,1 0,1 0 0,0
18.10.2018 05:00:00 5,5 5,0 4,0 8,4 11,5 13,3 4 2 6 3 SSW 1019,2 0,4 0 0,0
18.10.2018 04:00:00 4,9 4,6 2,6 8,6 11,8 13,3 4 2 5 3 S 1019,2 0,1 0 0,0
18.10.2018 03:00:00 5,0 4,5 2,3 8,9 12,1 13,3 2 1 5 3 S 1019,2 0,2 0 0,0
18.10.2018 02:00:00 5,4 4,9 2,5 9,3 12,4 13,3 2 1 8 4 SSE 1019,4 1,0 0 0,0
18.10.2018 01:00:00 5,7 5,2 2,8 9,8 12,7 13,3 0 0 6 3 N 1019,6 0,1 0 0,0
18.10.2018 00:00:00 6,2 5,7 3,3 10,3 13,1 13,3 2 1 8 4 SW 1019,9 0,1 0 0,0
17.10.2018 23:00:00 6,6 5,9 3,2 10,9 13,4 13,3 4 2 6 3 SE 1019,6 1,1 0 0,0
17.10.2018 22:00:00 7,9 7,2 4,4 11,6 13,8 13,3 0 0 8 4 N 1019,9 1,7 0 0,0
17.10.2018 21:00:00 8,6 7,0 5,4 12,4 14,2 13,3 2 1 8 4 SSE 1019,4 4,6 0 0,0
17.10.2018 20:00:00 9,9 8,6 6,2 13,3 14,5 13,3 4 2 13 7 E 1019,4 2,5 0 0,0
17.10.2018 19:00:00 10,8 8,8 7,2 14,4 14,7 13,3 11 6 13 7 ENE 1019,2 6 0 0,0
17.10.2018 18:00:00 13,8 10,9 10,4 16,0 14,7 13,3 5 3 9 5 ENE 1019,1 5 12 0,0
17.10.2018 17:00:00 18,0 11,3 19,0 17,4 14,4 13,3 7 4 10 5 NE 1018,9 10 60 0,0
17.10.2018 16:00:00 19,3 11,0 22,7 18,0 14,0 13,3 8 4 13 7 ENE 1018,9 11 60 0,0
17.10.2018 15:00:00 19,4 11,3 23,2 18,2 13,4 13,3 6 3 11 6 NNW 1019,1 12 60 0,0
17.10.2018 14:00:00 20,0 10,5 22,9 17,5 12,8 13,3 5 3 13 7 S 1019,3 13 60 0,0
17.10.2018 13:00:00 19,3 11,5 22,6 16,3 12,2 13,3 7 4 11 6 S 1019,5 10 60 0,0
17.10.2018 12:00:00 17,6 12,1 20,7 14,5 11,7 13,3 4 2 8 5 SSE 1019,9 7 60 0,0
17.10.2018 11:00:00 14,4 9,9 18,5 12,4 11,4 13,3 2 1 7 4 SSE 1020,1 6 60 0,0
17.10.2018 10:00:00 11,4 9,9 13,0 10,6 11,3 13,3 3 2 5 3 SE 1019,9 3,5 60 0,0
17.10.2018 09:00:00 7,8 7,2 8,4 9,3 11,4 13,3 2 1 3 2 SSW 1019,7 2,0 12 0,0
17.10.2018 08:00:00 6,0 5,6 5,2 9,3 11,6 13,3 1 1 2 1 SW 1019,7 0,1 0 0,0
17.10.2018 07:00:00 6,5 6,2 5,7 9,4 11,7 13,3 1 1 6 3 WNW 1019,5 0,1 0 0,0
17.10.2018 06:00:00 6,0 5,6 5,5 9,4 11,9 13,3 5 3 6 4 ESE 1019,5 0,1 0 0,0
17.10.2018 05:00:00 6,3 5,7 4,4 9,5 12,2 13,3 2 1 3 1 SSE 1019,2 0,1 0 0,0
17.10.2018 04:00:00 6,1 5,5 4,0 9,7 12,4 13,3 1 1 3 2 SW 1019,1 0,2 0 0,0
17.10.2018 03:00:00 6,4 5,9 4,1 10,1 12,7 13,3 0 0 3 2 N 1019,3 0,1 0 0,0
17.10.2018 02:00:00 6,6 5,9 4,5 10,6 12,9 13,3 1 1 4 2 SSW 1019,3 0,1 0 0,0
17.10.2018 01:00:00 7,6 7,1 5,7 10,9 13,2 13,3 0 0 5 3 N 1019,3 0,1 0 0,0
17.10.2018 00:00:00 7,1 6,3 5,5 11,3 13,5 13,3 4 2 5 3 W 1019,6 0,1 0 0,0
16.10.2018 23:00:00 8,8 8,1 5,4 11,9 13,8 13,3 0 0 2 1 N 1019,7 0,1 0 0,0
16.10.2018 22:00:00 8,3 7,3 6,2 12,4 14,1 13,3 2 1 6 3 W 1019,7 0,1 0 0,0
16.10.2018 21:00:00 10,6 9,9 6,2 13,2 14,5 13,3 2 1 3 2 S 1019,7 0,1 0 0,0
16.10.2018 20:00:00 10,9 9,7 7,1 14,1 14,7 13,3 0 0 5 3 N 1019,3 1,9 0 0,0
16.10.2018 19:00:00 12,8 10,8 9,4 15,3 14,9 13,3 3 2 4 2 SE 1019,0 7 0 0,0
16.10.2018 18:00:00 17,4 12,8 13,5 16,9 14,8 13,3 2 1 8 5 W 1018,5 11 48 0,0
16.10.2018 17:00:00 19,9 12,8 19,9 17,9 14,5 13,3 8 4 12 6 WNW 1018,3 16 60 0,0
16.10.2018 16:00:00 21,2 12,2 22,7 18,4 14,0 13,3 8 4 16 9 W 1018,3 17 60 0,0
16.10.2018 15:00:00 21,4 12,1 23,5 18,3 13,4 13,3 10 5 14 8 SW 1018,4 17 60 0,0
16.10.2018 14:00:00 20,6 9,3 24,2 17,6 12,7 13,3 7 4 11 6 SSE 1018,4 19 60 0,0
16.10.2018 13:00:00 19,6 9,4 23,2 16,1 12,1 13,3 7 4 14 7 S 1018,5 20 60 0,0
16.10.2018 12:00:00 18,0 8,1 21,7 14,2 11,6 13,3 6 3 12 6 SSW 1018,5 11 60 0,0
16.10.2018 11:00:00 16,0 7,7 18,4 12,2 11,3 13,3 6 3 16 9 S 1018,1 21 60 0,0
16.10.2018 10:00:00 13,0 7,2 14,8 10,3 11,2 13,3 5 3 11 6 S 1017,9 18 60 0,0
16.10.2018 09:00:00 10,5 6,2 11,1 9,0 11,4 13,3 4 2 12 6 SSE 1017,6 15 39 0,0
16.10.2018 08:00:00 6,0 4,4 3,3 8,6 11,6 13,3 2 1 4 2 SSE 1017,1 8 0 0,0
16.10.2018 07:00:00 6,5 4,7 3,8 8,9 11,8 13,3 3 2 10 5 S 1016,8 14 0 0,0
16.10.2018 06:00:00 6,8 5,0 3,7 9,2 12,0 13,3 0 0 6 3 N 1016,7 12 0 0,0
16.10.2018 05:00:00 7,8 5,4 4,2 9,5 12,3 13,3 3 2 9 5 SSW 1016,6 14 0 0,0
16.10.2018 04:00:00 9,9 6,0 5,3 9,9 12,5 13,3 5 3 11 6 SSE 1016,5 19 0 0,0
16.10.2018 03:00:00 9,4 5,7 5,2 10,3 12,8 13,3 9 5 11 6 SSE 1016,3 20 0 0,0
16.10.2018 02:00:00 11,4 6,4 8,1 10,7 13,1 13,3 11 6 15 8 SSE 1016,1 23 0 0,0
16.10.2018 01:00:00 12,0 6,5 8,5 11,2 13,3 13,3 10 6 13 7 SSE 1015,9 25 0 0,0
16.10.2018 00:00:00 13,1 6,8 9,6 11,6 13,6 13,3 10 5 14 7 S 1016,0 28 0 0,0
15.10.2018 23:00:00 13,8 6,6 8,8 12,2 13,8 13,3 9 5 15 8 SSE 1015,8 31 0 0,0
15.10.2018 22:00:00 15,2 6,9 11,8 12,9 14,1 13,3 10 5 18 10 S 1015,8 32 0 0,0
15.10.2018 21:00:00 15,8 7,2 13,0 13,5 14,3 13,3 13 7 22 12 S 1015,8 36 0 0,0
15.10.2018 20:00:00 15,8 7,5 12,4 14,0 14,6 13,3 10 5 18 10 SSE 1015,4 33 0 0,0
15.10.2018 19:00:00 16,9 7,8 12,2 15,0 14,7 13,3 9 5 17 9 SE 1015,0 34 3 0,0
15.10.2018 18:00:00 19,0 8,5 14,7 16,3 14,6 13,3 9 5 17 9 SE 1014,6 35 60 0,0
15.10.2018 17:00:00 21,3 8,3 20,9 17,3 14,4 13,3 13 7 22 12 SSE 1014,3 39 58 0,0
15.10.2018 16:00:00 21,8 8,4 22,7 17,9 13,9 13,3 12 7 21 11 S 1014,2 33 59 0,0

tt = Température de l'air
td = dewpoint
tt 5cm = Température de l'air 5cm
tt -5cm = Température de l'air -5cm
tt -20cm = Température de l'air -20cm
tt -100cm = Température de l'air -100cm
ff = Vitesse du vent
fx = gusts
dd = Direction du vent
ppp = reduced air pressure
vv = visibility
sd = Ensoleillement
rr = Quantités de précipitations

stations d'obs. à proximité